START_TIME,STEP,MOV.,A46,t_acc.,A13,t_acc.,M47,t_acc.,A17,t_acc.,A28,t_acc.,M38,t_acc.
1979-07-22 09:00:25.140 ,4,0,,0,0.,4.8,0.,4.8,,0,0.,4.8,0.,4.8
1979-07-22 09:00:29.940 ,4,0,,0,4.,4.8,0.,4.8,,0,0.,4.8,1.,4.8
1979-07-22 09:00:34.740 ,4,0,,0,6.,4.8,0.,4.8,,0,0.,4.8,0.,4.8
1979-07-22 09:00:39.540 ,4,0,,0,0.,4.8,0.,4.8,,0,0.,4.8,0.,4.8
1979-07-22 09:00:44.340 ,4,0,,0,0.,4.8,0.,4.8,,0,0.,4.8,0.,4.8
1979-07-22 09:00:49.140 ,3,0,,0,1.,4.8,0.,4.8,,0,0.,4.8,0.,4.8
1979-07-22 09:00:53.940 ,3,0,,0,0.,4.8,0.,4.8,,0,0.,4.8,0.,4.8
1979-07-22 09:00:58.740 ,3,0,,0,1.,4.8,0.,4.8,,0,0.,4.8,0.,4.8
1979-07-22 09:01:03.540 ,3,0,,0,4.,4.8,0.,4.8,,0,0.,4.8,0.,4.8
1979-07-22 09:01:08.340 ,3,0,,0,3.,4.8,0.,4.8,,0,0.,4.8,0.,4.8
1979-07-22 09:01:13.140 ,3,0,,0,0.,4.8,0.,4.8,,0,0.,4.8,0.,4.8
1979-07-22 09:01:17.940 ,3,0,,0,3.,4.8,0.,4.8,,0,0.,4.8,1.,4.8
1979-07-22 09:01:22.740 ,3,0,,0,1.,4.8,0.,4.8,,0,0.,4.8,0.,4.8
1979-07-22 09:01:27.540 ,3,0,,0,0.,4.8,0.,4.8,,0,0.,4.8,0.,4.8
1979-07-22 09:01:32.340 ,3,0,,0,0.,4.8,0.,4.8,,0,0.,4.8,0.,4.8
1979-07-22 09:01:37.140 ,2,0,,0,0.,4.8,0.,4.8,,0,0.,4.8,0.,4.8
1979-07-22 09:01:41.940 ,2,0,,0,0.,4.8,0.,4.8,,0,0.,4.8,1.,4.8
1979-07-22 09:01:46.740 ,2,0,,0,1.,4.8,0.,4.8,,0,0.,4.8,0.,4.8
1979-07-22 09:01:51.540 ,2,0,,0,10.,4.8,0.,4.8,,0,0.,4.8,1.,4.8
1979-07-22 09:01:56.340 ,2,0,,0,6.,4.8,0.,4.8,,0,0.,4.8,0.,4.8
1979-07-22 09:02:01.140 ,2,0,,0,10.,4.8,0.,4.8,,0,0.,4.8,0.,4.8
1979-07-22 09:02:05.940 ,2,0,,0,5.,4.8,0.,4.8,,0,0.,4.8,1.,4.8
1979-07-22 09:02:10.740 ,2,0,,0,10.,4.8,1.,4.8,,0,0.,4.8,2.,4.8
1979-07-22 09:02:15.540 ,2,0,,0,0.,4.8,0.,4.8,,0,0.,4.8,1.,4.8
1979-07-22 09:02:20.340 ,2,0,,0,0.,4.8,0.,4.8,,0,0.,4.8,1.,4.8
1979-07-22 09:02:25.140 ,1,0,,0,0.,4.8,0.,4.8,,0,0.,4.8,0.,4.8
1979-07-22 09:02:29.940 ,1,0,,0,0.,4.8,0.,4.8,,0,0.,4.8,64.,4.8
1979-07-22 09:02:34.740 ,1,0,,0,196.,4.8,53.,4.8,,0,0.,4.8,244.,4.8
1979-07-22 09:02:39.540 ,1,0,,0,1152.,4.8,432.,4.8,,0,0.,4.8,200.,4.8
1979-07-22 09:02:44.340 ,1,0,,0,960.,4.8,376.,4.8,,0,0.,4.8,180.,4.8
1979-07-22 09:02:49.140 ,1,0,,0,880.,4.8,304.,4.8,,0,0.,4.8,156.,4.8
1979-07-22 09:02:53.940 ,1,0,,0,784.,4.8,304.,4.8,,0,0.,4.8,148.,4.8
1979-07-22 09:02:58.740 ,1,0,,0,768.,4.8,304.,4.8,,0,0.,4.8,128.,4.8
1979-07-22 09:03:03.540 ,1,0,,0,0.,4.8,0.,4.8,,0,0.,4.8,104.,4.8
1979-07-22 09:03:08.340 ,1,0,,0,0.,4.8,0.,4.8,,0,0.,4.8,108.,4.8
1979-07-22 09:03:13.140 ,0,0,,0,0.,4.8,0.,4.8,,0,0.,4.8,76.,4.8
1979-07-22 09:03:17.940 ,0,0,,0,0.,4.8,0.,4.8,,0,0.,4.8,108.,4.8
1979-07-22 09:03:22.740 ,0,0,,0,212.,4.8,106.,4.8,,0,0.,4.8,82.,4.8
1979-07-22 09:03:27.540 ,0,0,,0,1248.,4.8,608.,4.8,,0,0.,4.8,44.,4.8
1979-07-22 09:03:32.340 ,0,0,,0,1216.,4.8,592.,4.8,,0,0.,4.8,42.,4.8
1979-07-22 09:03:37.140 ,0,0,,0,1408.,4.8,624.,4.8,,0,0.,4.8,50.,4.8
1979-07-22 09:03:41.940 ,0,0,,0,1536.,4.8,608.,4.8,,0,0.,4.8,60.,4.8
1979-07-22 09:03:46.740 ,0,0,,0,1408.,4.8,512.,4.8,,0,0.,4.8,78.,4.8
1979-07-22 09:03:51.540 ,0,0,,0,0.,4.8,0.,4.8,,0,0.,4.8,76.,4.8
1979-07-22 09:03:56.340 ,0,0,,0,0.,4.8,0.,4.8,,0,0.,4.8,94.,4.8
1979-07-22 09:04:01.140 ,0,0,,0,0.,4.8,0.,4.8,,0,0.,4.8,78.,4.8
1979-07-22 09:04:05.940 ,0,0,,0,0.,4.8,0.,4.8,,0,0.,4.8,64.,4.8
1979-07-22 09:04:10.740 ,0,0,,0,288.,4.8,106.,4.8,,0,0.,4.8,78.,4.8
1979-07-22 09:04:15.540 ,0,0,,0,1760.,4.8,672.,4.8,,0,0.,4.8,66.,4.8
1979-07-22 09:04:20.340 ,0,0,,0,1536.,4.8,640.,4.8,,0,0.,4.8,60.,4.8
1979-07-22 09:04:25.140 ,0,0,,0,1568.,4.8,640.,4.8,,0,0.,4.8,72.,4.8
1979-07-22 09:04:29.940 ,0,0,,0,1344.,4.8,560.,4.8,,0,0.,4.8,70.,4.8
1979-07-22 09:04:34.740 ,0,0,,0,880.,4.8,368.,4.8,,0,0.,4.8,62.,4.8
1979-07-22 09:04:39.540 ,0,0,,0,0.,4.8,0.,4.8,,0,0.,4.8,62.,4.8
1979-07-22 09:04:44.340 ,0,0,,0,0.,4.8,0.,4.8,,0,0.,4.8,55.,4.8
1979-07-22 09:04:49.140 ,1,0,,0,1.,4.8,1.,4.8,,0,0.,4.8,82.,4.8
1979-07-22 09:04:53.940 ,1,0,,0,0.,4.8,0.,4.8,,0,0.,4.8,90.,4.8
1979-07-22 09:04:58.740 ,1,0,,0,66.,4.8,12.,4.8,,0,0.,4.8,94.,4.8
1979-07-22 09:05:03.540 ,1,0,,0,392.,4.8,78.,4.8,,0,0.,4.8,104.,4.8
1979-07-22 09:05:08.340 ,1,0,,0,400.,4.8,98.,4.8,,0,0.,4.8,98.,4.8
1979-07-22 09:05:13.140 ,1,0,,0,384.,4.8,98.,4.8,,0,0.,4.8,60.,4.8
1979-07-22 09:05:17.940 ,1,0,,0,440.,4.8,120.,4.8,,0,0.,4.8,96.,4.8
1979-07-22 09:05:22.740 ,1,0,,0,408.,4.8,110.,4.8,,0,0.,4.8,82.,4.8
1979-07-22 09:05:27.540 ,1,0,,0,0.,4.8,0.,4.8,,0,0.,4.8,90.,4.8
1979-07-22 09:05:32.340 ,1,0,,0,0.,4.8,0.,4.8,,0,0.,4.8,100.,4.8
1979-07-22 09:05:37.140 ,2,0,,0,0.,4.8,0.,4.8,,0,0.,4.8,112.,4.8
1979-07-22 09:05:41.940 ,2,0,,0,0.,4.8,0.,4.8,,0,0.,4.8,92.,4.8
1979-07-22 09:05:46.740 ,2,0,,0,0.,4.8,0.,4.8,,0,0.,4.8,0.,4.8
1979-07-22 09:05:51.540 ,2,0,,0,6.,4.8,0.,4.8,,0,0.,4.8,0.,4.8
1979-07-22 09:05:56.340 ,2,0,,0,3.,4.8,0.,4.8,,0,0.,4.8,0.,4.8
1979-07-22 09:06:01.140 ,2,0,,0,6.,4.8,0.,4.8,,0,0.,4.8,0.,4.8
1979-07-22 09:06:05.940 ,2,0,,0,4.,4.8,0.,4.8,,0,0.,4.8,0.,4.8
1979-07-22 09:06:10.740 ,2,0,,0,6.,4.8,0.,4.8,,0,0.,4.8,0.,4.8
1979-07-22 09:06:15.540 ,2,0,,0,0.,4.8,0.,4.8,,0,0.,4.8,0.,4.8
1979-07-22 09:06:20.340 ,2,0,,0,1.,4.8,0.,4.8,,0,0.,4.8,1.,4.8
1979-07-22 09:06:25.140 ,3,0,,0,0.,4.8,0.,4.8,,0,0.,4.8,0.,4.8
1979-07-22 09:06:29.940 ,3,0,,0,0.,4.8,0.,4.8,,0,0.,4.8,0.,4.8
1979-07-22 09:06:34.740 ,3,0,,0,1.,4.8,0.,4.8,,0,0.,4.8,0.,4.8
1979-07-22 09:06:39.540 ,3,0,,0,2.,4.8,0.,4.8,,0,0.,4.8,0.,4.8
1979-07-22 09:06:44.340 ,3,0,,0,1.,4.8,0.,4.8,,0,0.,4.8,1.,4.8
1979-07-22 09:06:49.140 ,3,0,,0,4.,4.8,0.,4.8,,0,0.,4.8,0.,4.8
1979-07-22 09:06:53.940 ,3,0,,0,,0,,0,,0,,0,,0
1979-07-22 09:06:58.740 ,3,0,,0,2.,4.8,0.,4.8,,0,0.,4.8,3.,4.8
1979-07-22 09:07:03.540 ,3,0,,0,0.,4.8,0.,4.8,,0,0.,4.8,0.,4.8
1979-07-22 09:07:08.340 ,3,0,,0,1.,4.8,0.,4.8,,0,0.,4.8,1.,4.8
1979-07-22 09:07:13.140 ,4,0,,0,0.,4.8,0.,4.8,,0,0.,4.8,0.,4.8
1979-07-22 09:07:17.940 ,4,0,,0,0.,4.8,0.,4.8,,0,0.,4.8,0.,4.8
1979-07-22 09:07:22.740 ,4,0,,0,0.,4.8,0.,4.8,,0,0.,4.8,0.,4.8
1979-07-22 09:07:27.540 ,4,0,,0,1.,4.8,0.,4.8,,0,0.,4.8,0.,4.8
1979-07-22 09:07:32.340 ,4,0,,0,0.,4.8,0.,4.8,,0,0.,4.8,0.,4.8
1979-07-22 09:07:37.140 ,4,0,,0,1.,4.8,0.,4.8,,0,0.,4.8,0.,4.8
1979-07-22 09:07:41.940 ,4,0,,0,5.,4.8,0.,4.8,,0,0.,4.8,0.,4.8
1979-07-22 09:07:46.740 ,4,0,,0,1.,4.8,0.,4.8,,0,0.,4.8,0.,4.8
1979-07-22 09:07:51.540 ,4,0,,0,0.,4.8,0.,4.8,,0,0.,4.8,0.,4.8
1979-07-22 09:07:56.340 ,4,0,,0,0.,4.8,0.,4.8,,0,0.,4.8,0.,4.8
1979-07-22 09:08:01.140 ,5,0,,0,0.,4.8,0.,4.8,,0,0.,4.8,0.,4.8
1979-07-22 09:08:05.940 ,5,0,,0,0.,4.8,0.,4.8,,0,0.,4.8,1.,4.8
1979-07-22 09:08:10.740 ,5,0,,0,1.,4.8,0.,4.8,,0,0.,4.8,0.,4.8
1979-07-22 09:08:15.540 ,5,0,,0,1.,4.8,0.,4.8,,0,0.,4.8,1.,4.8
1979-07-22 09:08:20.340 ,5,0,,0,4.,4.8,0.,4.8,,0,0.,4.8,0.,4.8
1979-07-22 09:08:25.140 ,5,0,,0,3.,4.8,0.,4.8,,0,0.,4.8,0.,4.8
1979-07-22 09:08:29.940 ,5,0,,0,4.,4.8,0.,4.8,,0,0.,4.8,1.,4.8
1979-07-22 09:08:34.740 ,5,0,,0,1.,4.8,0.,4.8,,0,0.,4.8,0.,4.8
1979-07-22 09:08:39.540 ,5,0,,0,0.,4.8,0.,4.8,,0,0.,4.8,0.,4.8
1979-07-22 09:08:44.340 ,5,0,,0,0.,4.8,0.,4.8,,0,0.,4.8,1.,4.8
1979-07-22 09:08:49.140 ,6,0,,0,0.,4.8,0.,4.8,,0,1.,4.8,0.,4.8
1979-07-22 09:08:53.940 ,6,0,,0,0.,4.8,0.,4.8,,0,0.,4.8,0.,4.8
1979-07-22 09:08:58.740 ,6,0,,0,1.,4.8,0.,4.8,,0,0.,4.8,0.,4.8
1979-07-22 09:09:03.540 ,6,0,,0,7.,4.8,0.,4.8,,0,0.,4.8,0.,4.8
1979-07-22 09:09:08.340 ,6,0,,0,6.,4.8,1.,4.8,,0,0.,4.8,0.,4.8
1979-07-22 09:09:13.140 ,6,0,,0,5.,4.8,0.,4.8,,0,0.,4.8,0.,4.8
1979-07-22 09:09:17.940 ,6,0,,0,6.,4.8,0.,4.8,,0,0.,4.8,0.,4.8
1979-07-22 09:09:22.740 ,6,0,,0,2.,4.8,0.,4.8,,0,0.,4.8,0.,4.8
1979-07-22 09:09:27.540 ,6,0,,0,0.,4.8,0.,4.8,,0,0.,4.8,0.,4.8
1979-07-22 09:09:32.340 ,6,0,,0,0.,4.8,0.,4.8,,0,0.,4.8,0.,4.8
1979-07-22 09:09:37.140 ,7,0,,0,0.,4.8,0.,4.8,,0,0.,4.8,0.,4.8
1979-07-22 09:09:41.940 ,7,0,,0,0.,4.8,0.,4.8,,0,0.,4.8,0.,4.8
1979-07-22 09:09:46.740 ,7,0,,0,0.,4.8,0.,4.8,,0,0.,4.8,0.,4.8
1979-07-22 09:09:51.540 ,7,0,,0,13.,4.8,0.,4.8,,0,0.,4.8,0.,4.8
1979-07-22 09:09:56.340 ,7,0,,0,14.,4.8,0.,4.8,,0,0.,4.8,0.,4.8
1979-07-22 09:10:01.140 ,7,0,,0,13.,4.8,0.,4.8,,0,0.,4.8,0.,4.8
1979-07-22 09:10:05.940 ,7,0,,0,17.,4.8,0.,4.8,,0,0.,4.8,0.,4.8
1979-07-22 09:10:10.740 ,7,0,,0,10.,4.8,0.,4.8,,0,0.,4.8,0.,4.8
1979-07-22 09:10:15.540 ,7,0,,0,0.,4.8,0.,4.8,,0,0.,4.8,0.,4.8
1979-07-22 09:10:20.340 ,7,0,,0,0.,4.8,0.,4.8,,0,0.,4.8,0.,4.8
1979-07-22 09:10:25.140 ,7,0,,0,0.,4.8,0.,4.8,,0,0.,4.8,0.,4.8
1979-07-22 09:10:29.940 ,7,0,,0,0.,4.8,0.,4.8,,0,0.,4.8,0.,4.8
1979-07-22 09:10:34.740 ,7,0,,0,3.,4.8,0.,4.8,,0,0.,4.8,0.,4.8
1979-07-22 09:10:39.540 ,7,0,,0,10.,4.8,0.,4.8,,0,0.,4.8,0.,4.8
1979-07-22 09:10:44.340 ,7,0,,0,21.,4.8,0.,4.8,,0,0.,4.8,0.,4.8
1979-07-22 09:10:49.140 ,7,0,,0,11.,4.8,0.,4.8,,0,0.,4.8,0.,4.8
1979-07-22 09:10:53.940 ,7,0,,0,13.,4.8,0.,4.8,,0,1.,4.8,0.,4.8
1979-07-22 09:10:58.740 ,7,0,,0,11.,4.8,0.,4.8,,0,0.,4.8,0.,4.8
1979-07-22 09:11:03.540 ,7,0,,0,0.,4.8,1.,4.8,,0,0.,4.8,0.,4.8
1979-07-22 09:11:08.340 ,7,0,,0,0.,4.8,0.,4.8,,0,0.,4.8,0.,4.8
1979-07-22 09:11:13.140 ,6,0,,0,0.,4.8,0.,4.8,,0,0.,4.8,0.,4.8
1979-07-22 09:11:17.940 ,6,0,,0,0.,4.8,0.,4.8,,0,0.,4.8,1.,4.8
1979-07-22 09:11:22.740 ,6,0,,0,0.,4.8,0.,4.8,,0,0.,4.8,1.,4.8
1979-07-22 09:11:27.540 ,6,0,,0,7.,4.8,0.,4.8,,0,0.,4.8,0.,4.8
1979-07-22 09:11:32.340 ,6,0,,0,9.,4.8,1.,4.8,,0,0.,4.8,0.,4.8
1979-07-22 09:11:37.140 ,6,0,,0,6.,4.8,0.,4.8,,0,0.,4.8,0.,4.8
1979-07-22 09:11:41.940 ,6,0,,0,5.,4.8,1.,4.8,,0,0.,4.8,0.,4.8
1979-07-22 09:11:46.740 ,6,0,,0,6.,4.8,0.,4.8,,0,0.,4.8,1.,4.8
1979-07-22 09:11:51.540 ,6,0,,0,0.,4.8,0.,4.8,,0,0.,4.8,0.,4.8
1979-07-22 09:11:56.340 ,6,0,,0,0.,4.8,0.,4.8,,0,0.,4.8,1.,4.8
1979-07-22 09:12:01.140 ,5,0,,0,0.,4.8,0.,4.8,,0,0.,4.8,1.,4.8
1979-07-22 09:12:05.940 ,5,0,,0,0.,4.8,0.,4.8,,0,0.,4.8,0.,4.8
1979-07-22 09:12:10.740 ,5,0,,0,0.,4.8,0.,4.8,,0,0.,4.8,0.,4.8
1979-07-22 09:12:15.540 ,5,0,,0,2.,4.8,0.,4.8,,0,0.,4.8,0.,4.8
1979-07-22 09:12:20.340 ,5,0,,0,5.,4.8,0.,4.8,,0,0.,4.8,0.,4.8
1979-07-22 09:12:25.140 ,5,0,,0,2.,4.8,0.,4.8,,0,0.,4.8,1.,4.8
1979-07-22 09:12:29.940 ,5,0,,0,4.,4.8,1.,4.8,,0,0.,4.8,0.,4.8
1979-07-22 09:12:34.740 ,5,0,,0,0.,4.8,0.,4.8,,0,0.,4.8,0.,4.8
1979-07-22 09:12:39.540 ,5,0,,0,0.,4.8,0.,4.8,,0,0.,4.8,0.,4.8
1979-07-22 09:12:44.340 ,5,0,,0,0.,4.8,0.,4.8,,0,0.,4.8,0.,4.8
1979-07-22 09:12:49.140 ,4,0,,0,0.,4.8,0.,4.8,,0,0.,4.8,0.,4.8
1979-07-22 09:12:53.940 ,4,0,,0,0.,4.8,0.,4.8,,0,0.,4.8,0.,4.8
1979-07-22 09:12:58.740 ,4,0,,0,2.,4.8,0.,4.8,,0,0.,4.8,5.,4.8
1979-07-22 09:13:03.540 ,4,0,,0,5.,4.8,1.,4.8,,0,0.,4.8,1.,4.8
1979-07-22 09:13:08.340 ,4,0,,0,5.,4.8,0.,4.8,,0,0.,4.8,0.,4.8
1979-07-22 09:13:13.140 ,4,0,,0,4.,4.8,0.,4.8,,0,0.,4.8,2.,4.8
1979-07-22 09:13:17.940 ,4,0,,0,5.,4.8,1.,4.8,,0,0.,4.8,2.,4.8
1979-07-22 09:13:22.740 ,4,0,,0,5.,4.8,1.,4.8,,0,0.,4.8,1.,4.8
1979-07-22 09:13:27.540 ,4,0,,0,0.,4.8,0.,4.8,,0,0.,4.8,2.,4.8
1979-07-22 09:13:32.340 ,4,0,,0,0.,4.8,0.,4.8,,0,0.,4.8,0.,4.8
1979-07-22 09:13:37.140 ,3,0,,0,0.,4.8,0.,4.8,,0,0.,4.8,1.,4.8
1979-07-22 09:13:41.940 ,3,0,,0,0.,4.8,0.,4.8,,0,0.,4.8,0.,4.8
1979-07-22 09:13:46.740 ,3,0,,0,0.,4.8,0.,4.8,,0,0.,4.8,1.,4.8
1979-07-22 09:13:51.540 ,3,0,,0,4.,4.8,0.,4.8,,0,0.,4.8,1.,4.8
1979-07-22 09:13:56.340 ,3,0,,0,6.,4.8,2.,4.8,,0,0.,4.8,0.,4.8
1979-07-22 09:14:01.140 ,3,0,,0,3.,4.8,1.,4.8,,0,0.,4.8,0.,4.8
1979-07-22 09:14:05.940 ,3,0,,0,6.,4.8,0.,4.8,,0,0.,4.8,2.,4.8
1979-07-22 09:14:10.740 ,3,0,,0,2.,4.8,0.,4.8,,0,0.,4.8,0.,4.8
1979-07-22 09:14:15.540 ,3,0,,0,0.,4.8,0.,4.8,,0,0.,4.8,1.,4.8
1979-07-22 09:14:20.340 ,3,0,,0,0.,4.8,0.,4.8,,0,0.,4.8,0.,4.8
1979-07-22 09:14:25.140 ,2,0,,0,0.,4.8,1.,4.8,,0,0.,4.8,0.,4.8
1979-07-22 09:14:29.940 ,2,0,,0,0.,4.8,0.,4.8,,0,0.,4.8,0.,4.8
1979-07-22 09:14:34.740 ,2,0,,0,3.,4.8,1.,4.8,,0,0.,4.8,1.,4.8
1979-07-22 09:14:39.540 ,2,0,,0,12.,4.8,1.,4.8,,0,0.,4.8,0.,4.8
1979-07-22 09:14:44.340 ,2,0,,0,5.,4.8,0.,4.8,,0,0.,4.8,1.,4.8
1979-07-22 09:14:49.140 ,2,0,,0,9.,4.8,0.,4.8,,0,0.,4.8,0.,4.8
1979-07-22 09:14:53.940 ,2,0,,0,8.,4.8,2.,4.8,,0,0.,4.8,1.,4.8
1979-07-22 09:14:58.740 ,2,0,,0,5.,4.8,0.,4.8,,0,0.,4.8,0.,4.8
1979-07-22 09:15:03.540 ,2,0,,0,0.,4.8,0.,4.8,,0,0.,4.8,0.,4.8
1979-07-22 09:15:08.340 ,2,0,,0,0.,4.8,0.,4.8,,0,0.,4.8,1.,4.8
1979-07-22 09:15:13.140 ,1,0,,0,0.,4.8,0.,4.8,,0,0.,4.8,0.,4.8
1979-07-22 09:15:17.940 ,1,0,,0,0.,4.8,0.,4.8,,0,0.,4.8,57.,4.8
1979-07-22 09:15:22.740 ,1,0,,0,220.,4.8,112.,4.8,,0,0.,4.8,148.,4.8
1979-07-22 09:15:27.540 ,1,0,,0,1184.,4.8,560.,4.8,,0,0.,4.8,224.,4.8
1979-07-22 09:15:32.340 ,1,0,,0,1312.,4.8,608.,4.8,,0,0.,4.8,248.,4.8
1979-07-22 09:15:37.140 ,1,0,,0,1312.,4.8,592.,4.8,,0,0.,4.8,228.,4.8
1979-07-22 09:15:41.940 ,1,0,,0,1280.,4.8,592.,4.8,,0,0.,4.8,220.,4.8
1979-07-22 09:15:46.740 ,1,0,,0,1024.,4.8,496.,4.8,,0,0.,4.8,256.,4.8
1979-07-22 09:15:51.540 ,1,0,,0,0.,4.8,0.,4.8,,0,0.,4.8,228.,4.8
1979-07-22 09:15:56.340 ,1,0,,0,0.,4.8,0.,4.8,,0,0.,4.8,304.,4.8
1979-07-22 09:16:01.140 ,0,0,,0,0.,4.8,0.,4.8,,0,0.,4.8,240.,4.8
1979-07-22 09:16:05.940 ,0,0,,0,0.,4.8,0.,4.8,,0,0.,4.8,152.,4.8
1979-07-22 09:16:10.740 ,0,0,,0,416.,4.8,144.,4.8,,0,0.,4.8,40.,4.8
1979-07-22 09:16:15.540 ,0,0,,0,2432.,4.8,784.,4.8,,0,0.,4.8,54.,4.8
1979-07-22 09:16:20.340 ,0,0,,0,2304.,4.8,768.,4.8,,0,0.,4.8,57.,4.8
1979-07-22 09:16:25.140 ,0,0,,0,2016.,4.8,704.,4.8,,0,0.,4.8,59.,4.8
1979-07-22 09:16:29.940 ,0,0,,0,1952.,4.8,640.,4.8,,0,0.,4.8,54.,4.8
1979-07-22 09:16:34.740 ,0,0,,0,1536.,4.8,440.,4.8,,0,0.,4.8,48.,4.8
1979-07-22 09:16:39.540 ,0,0,,0,0.,4.8,0.,4.8,,0,0.,4.8,43.,4.8
1979-07-22 09:16:44.340 ,0,0,,0,1.,4.8,0.,4.8,,0,0.,4.8,38.,4.8
1979-07-22 09:16:49.140 ,0,0,,0,0.,4.8,0.,4.8,,0,0.,4.8,30.,4.8
1979-07-22 09:16:53.940 ,0,0,,0,0.,4.8,0.,4.8,,0,0.,4.8,39.,4.8
1979-07-22 09:16:58.740 ,0,0,,0,320.,4.8,76.,4.8,,0,0.,4.8,39.,4.8
1979-07-22 09:17:03.540 ,0,0,,0,1856.,4.8,384.,4.8,,0,0.,4.8,35.,4.8
1979-07-22 09:17:08.340 ,0,0,,0,1824.,4.8,424.,4.8,,0,0.,4.8,27.,4.8
1979-07-22 09:17:13.140 ,0,0,,0,1888.,4.8,440.,4.8,,0,0.,4.8,35.,4.8
1979-07-22 09:17:17.940 ,0,0,,0,1728.,4.8,384.,4.8,,0,0.,4.8,24.,4.8
1979-07-22 09:17:22.740 ,0,0,,0,1312.,4.8,312.,4.8,,0,0.,4.8,24.,4.8
1979-07-22 09:17:27.540 ,0,0,,0,0.,4.8,0.,4.8,,0,0.,4.8,30.,4.8
1979-07-22 09:17:32.340 ,0,0,,0,0.,4.8,1.,4.8,,0,0.,4.8,35.,4.8
1979-07-22 09:17:37.140 ,1,0,,0,0.,4.8,0.,4.8,,0,0.,4.8,26.,4.8
1979-07-22 09:17:41.940 ,1,0,,0,0.,4.8,0.,4.8,,0,0.,4.8,54.,4.8
1979-07-22 09:17:46.740 ,1,0,,0,112.,4.8,33.,4.8,,0,0.,4.8,61.,4.8
1979-07-22 09:17:51.540 ,1,0,,0,704.,4.8,188.,4.8,,0,0.,4.8,82.,4.8
1979-07-22 09:17:56.340 ,1,0,,0,704.,4.8,172.,4.8,,0,0.,4.8,92.,4.8
1979-07-22 09:18:01.140 ,1,0,,0,672.,4.8,208.,4.8,,0,0.,4.8,59.,4.8
1979-07-22 09:18:05.940 ,1,0,,0,592.,4.8,172.,4.8,,0,0.,4.8,60.,4.8
1979-07-22 09:18:10.740 ,1,0,,0,504.,4.8,188.,4.8,,0,0.,4.8,86.,4.8
1979-07-22 09:18:15.540 ,1,0,,0,0.,4.8,0.,4.8,,0,0.,4.8,64.,4.8
1979-07-22 09:18:20.340 ,1,0,,0,0.,4.8,0.,4.8,,0,0.,4.8,68.,4.8
1979-07-22 09:18:25.140 ,2,0,,0,0.,4.8,0.,4.8,,0,0.,4.8,76.,4.8
1979-07-22 09:18:29.940 ,2,0,,0,0.,4.8,0.,4.8,,0,0.,4.8,49.,4.8
1979-07-22 09:18:34.740 ,2,0,,0,0.,4.8,0.,4.8,,0,0.,4.8,1.,4.8
1979-07-22 09:18:39.540 ,2,0,,0,6.,4.8,0.,4.8,,0,0.,4.8,1.,4.8
1979-07-22 09:18:44.340 ,2,0,,0,12.,4.8,1.,4.8,,0,0.,4.8,1.,4.8
1979-07-22 09:18:49.140 ,2,0,,0,13.,4.8,2.,4.8,,0,0.,4.8,1.,4.8
1979-07-22 09:18:53.940 ,2,0,,0,6.,4.8,1.,4.8,,0,0.,4.8,0.,4.8
1979-07-22 09:18:58.740 ,2,0,,0,5.,4.8,2.,4.8,,0,0.,4.8,0.,4.8
1979-07-22 09:19:03.540 ,2,0,,0,0.,4.8,0.,4.8,,0,0.,4.8,0.,4.8
1979-07-22 09:19:08.340 ,2,0,,0,0.,4.8,0.,4.8,,0,0.,4.8,1.,4.8
1979-07-22 09:19:13.140 ,3,0,,0,0.,4.8,0.,4.8,,0,0.,4.8,1.,4.8
1979-07-22 09:19:17.940 ,3,0,,0,0.,4.8,0.,4.8,,0,0.,4.8,0.,4.8
1979-07-22 09:19:22.740 ,3,0,,0,2.,4.8,0.,4.8,,0,0.,4.8,0.,4.8
1979-07-22 09:19:27.540 ,3,0,,0,3.,4.8,0.,4.8,,0,0.,4.8,0.,4.8
1979-07-22 09:19:32.340 ,3,0,,0,5.,4.8,0.,4.8,,0,0.,4.8,1.,4.8
1979-07-22 09:19:37.140 ,3,0,,0,2.,4.8,0.,4.8,,0,0.,4.8,0.,4.8
1979-07-22 09:19:41.940 ,3,0,,0,1.,4.8,0.,4.8,,0,0.,4.8,0.,4.8
1979-07-22 09:19:46.740 ,3,0,,0,2.,4.8,0.,4.8,,0,0.,4.8,0.,4.8
1979-07-22 09:19:51.540 ,3,0,,0,0.,4.8,0.,4.8,,0,0.,4.8,0.,4.8
1979-07-22 09:19:56.340 ,3,0,,0,0.,4.8,0.,4.8,,0,0.,4.8,0.,4.8
1979-07-22 09:20:01.140 ,4,0,,0,0.,4.8,0.,4.8,,0,0.,4.8,1.,4.8
1979-07-22 09:20:05.940 ,4,0,,0,0.,4.8,0.,4.8,,0,0.,4.8,0.,4.8
1979-07-22 09:20:10.740 ,4,0,,0,0.,4.8,0.,4.8,,0,0.,4.8,0.,4.8
1979-07-22 09:20:15.540 ,4,0,,0,4.,4.8,0.,4.8,,0,0.,4.8,0.,4.8
1979-07-22 09:20:20.340 ,4,0,,0,4.,4.8,0.,4.8,,0,0.,4.8,0.,4.8
1979-07-22 09:20:25.140 ,4,0,,0,2.,4.8,0.,4.8,,0,0.,4.8,1.,4.8
1979-07-22 09:20:29.940 ,4,0,,0,8.,4.8,0.,4.8,,0,0.,4.8,0.,4.8
1979-07-22 09:20:34.740 ,4,0,,0,3.,4.8,0.,4.8,,0,0.,4.8,0.,4.8
1979-07-22 09:20:39.540 ,4,0,,0,0.,4.8,0.,4.8,,0,0.,4.8,0.,4.8
1979-07-22 09:20:44.340 ,4,0,,0,0.,4.8,0.,4.8,,0,1.,4.8,0.,4.8
1979-07-22 09:20:49.140 ,5,0,,0,0.,4.8,0.,4.8,,0,0.,4.8,0.,4.8
1979-07-22 09:20:53.940 ,5,0,,0,0.,4.8,0.,4.8,,0,0.,4.8,0.,4.8
1979-07-22 09:20:58.740 ,5,0,,0,0.,4.8,0.,4.8,,0,0.,4.8,0.,4.8
1979-07-22 09:21:03.540 ,5,0,,0,4.,4.8,0.,4.8,,0,0.,4.8,1.,4.8
1979-07-22 09:21:08.340 ,5,0,,0,3.,4.8,0.,4.8,,0,0.,4.8,0.,4.8
1979-07-22 09:21:13.140 ,5,0,,0,2.,4.8,0.,4.8,,0,0.,4.8,0.,4.8
1979-07-22 09:21:17.940 ,5,0,,0,5.,4.8,0.,4.8,,0,0.,4.8,1.,4.8
1979-07-22 09:21:22.740 ,5,0,,0,2.,4.8,0.,4.8,,0,0.,4.8,0.,4.8
1979-07-22 09:21:27.540 ,5,0,,0,0.,4.8,0.,4.8,,0,0.,4.8,1.,4.8
1979-07-22 09:21:32.340 ,5,0,,0,0.,4.8,0.,4.8,,0,0.,4.8,0.,4.8
1979-07-22 09:21:37.140 ,6,0,,0,0.,4.8,0.,4.8,,0,0.,4.8,0.,4.8
1979-07-22 09:21:41.940 ,6,0,,0,0.,4.8,0.,4.8,,0,0.,4.8,0.,4.8
1979-07-22 09:21:46.740 ,6,0,,0,0.,4.8,0.,4.8,,0,0.,4.8,2.,4.8
1979-07-22 09:21:51.540 ,6,0,,0,19.,4.8,3.,4.8,,0,0.,4.8,0.,4.8
1979-07-22 09:21:56.340 ,6,0,,0,18.,4.8,0.,4.8,,0,0.,4.8,1.,4.8
1979-07-22 09:22:01.140 ,6,0,,0,6.,4.8,1.,4.8,,0,0.,4.8,3.,4.8
1979-07-22 09:22:05.940 ,6,0,,0,17.,4.8,3.,4.8,,0,0.,4.8,2.,4.8
1979-07-22 09:22:10.740 ,6,0,,0,15.,4.8,3.,4.8,,0,0.,4.8,4.,4.8
1979-07-22 09:22:15.540 ,6,0,,0,0.,4.8,0.,4.8,,0,0.,4.8,1.,4.8
1979-07-22 09:22:20.340 ,6,0,,0,0.,4.8,0.,4.8,,0,0.,4.8,1.,4.8
1979-07-22 09:22:25.140 ,7,0,,0,0.,4.8,0.,4.8,,0,0.,4.8,4.,4.8
1979-07-22 09:22:29.940 ,7,0,,0,0.,4.8,0.,4.8,,0,0.,4.8,1.,4.8
1979-07-22 09:22:34.740 ,7,0,,0,2.,4.8,0.,4.8,,0,0.,4.8,0.,4.8
1979-07-22 09:22:39.540 ,7,0,,0,9.,4.8,0.,4.8,,0,0.,4.8,0.,4.8
1979-07-22 09:22:44.340 ,7,0,,0,14.,4.8,0.,4.8,,0,0.,4.8,0.,4.8
1979-07-22 09:22:49.140 ,7,0,,0,9.,4.8,0.,4.8,,0,0.,4.8,0.,4.8
1979-07-22 09:22:53.940 ,7,0,,0,15.,4.8,0.,4.8,,0,0.,4.8,0.,4.8
1979-07-22 09:22:58.740 ,7,0,,0,9.,4.8,0.,4.8,,0,0.,4.8,0.,4.8
1979-07-22 09:23:03.540 ,7,0,,0,0.,4.8,0.,4.8,,0,0.,4.8,0.,4.8
1979-07-22 09:23:08.340 ,7,0,,0,0.,4.8,0.,4.8,,0,0.,4.8,0.,4.8
1979-07-22 09:23:13.140 ,7,0,,0,0.,4.8,0.,4.8,,0,0.,4.8,0.,4.8
1979-07-22 09:23:17.940 ,7,0,,0,0.,4.8,0.,4.8,,0,0.,4.8,0.,4.8
1979-07-22 09:23:22.740 ,7,0,,0,1.,4.8,0.,4.8,,0,0.,4.8,0.,4.8
1979-07-22 09:23:27.540 ,7,0,,0,11.,4.8,0.,4.8,,0,0.,4.8,1.,4.8
1979-07-22 09:23:32.340 ,7,0,,0,16.,4.8,0.,4.8,,0,0.,4.8,0.,4.8
1979-07-22 09:23:37.140 ,7,0,,0,12.,4.8,0.,4.8,,0,0.,4.8,0.,4.8
1979-07-22 09:23:41.940 ,7,0,,0,17.,4.8,0.,4.8,,0,0.,4.8,0.,4.8
1979-07-22 09:23:46.740 ,7,0,,0,9.,4.8,0.,4.8,,0,0.,4.8,0.,4.8
1979-07-22 09:23:51.540 ,7,0,,0,0.,4.8,0.,4.8,,0,0.,4.8,0.,4.8
1979-07-22 09:23:56.340 ,7,0,,0,0.,4.8,0.,4.8,,0,0.,4.8,0.,4.8
1979-07-22 09:24:01.140 ,6,0,,0,0.,4.8,0.,4.8,,0,0.,4.8,0.,4.8
1979-07-22 09:24:05.940 ,6,0,,0,0.,4.8,0.,4.8,,0,0.,4.8,1.,4.8
1979-07-22 09:24:10.740 ,6,0,,0,2.,4.8,0.,4.8,,0,0.,4.8,2.,4.8
1979-07-22 09:24:15.540 ,6,0,,0,18.,4.8,2.,4.8,,0,0.,4.8,0.,4.8
1979-07-22 09:24:20.340 ,6,0,,0,28.,4.8,7.,4.8,,0,0.,4.8,5.,4.8
1979-07-22 09:24:25.140 ,6,0,,0,25.,4.8,3.,4.8,,0,0.,4.8,4.,4.8
1979-07-22 09:24:29.940 ,6,0,,0,31.,4.8,5.,4.8,,0,0.,4.8,6.,4.8
1979-07-22 09:24:34.740 ,6,0,,0,18.,4.8,5.,4.8,,0,0.,4.8,5.,4.8
1979-07-22 09:24:39.540 ,6,0,,0,0.,4.8,0.,4.8,,0,0.,4.8,2.,4.8
1979-07-22 09:24:44.340 ,6,0,,0,0.,4.8,0.,4.8,,0,0.,4.8,6.,4.8
1979-07-22 09:24:49.140 ,5,0,,0,0.,4.8,0.,4.8,,0,0.,4.8,7.,4.8
1979-07-22 09:24:53.940 ,5,0,,0,0.,4.8,0.,4.8,,0,0.,4.8,6.,4.8
1979-07-22 09:24:58.740 ,5,0,,0,0.,4.8,0.,4.8,,0,0.,4.8,0.,4.8
1979-07-22 09:25:03.540 ,5,0,,0,4.,4.8,0.,4.8,,0,0.,4.8,0.,4.8
1979-07-22 09:25:08.340 ,5,0,,0,2.,4.8,0.,4.8,,0,0.,4.8,0.,4.8
1979-07-22 09:25:13.140 ,5,0,,0,3.,4.8,0.,4.8,,0,0.,4.8,0.,4.8
1979-07-22 09:25:17.940 ,5,0,,0,5.,4.8,0.,4.8,,0,0.,4.8,0.,4.8
1979-07-22 09:25:22.740 ,5,0,,0,4.,4.8,0.,4.8,,0,0.,4.8,0.,4.8
1979-07-22 09:25:27.540 ,5,0,,0,0.,4.8,0.,4.8,,0,0.,4.8,0.,4.8
1979-07-22 09:25:32.340 ,5,0,,0,0.,4.8,0.,4.8,,0,1.,4.8,0.,4.8
1979-07-22 09:25:37.140 ,4,0,,0,0.,4.8,0.,4.8,,0,1.,4.8,0.,4.8
1979-07-22 09:25:41.940 ,4,0,,0,0.,4.8,0.,4.8,,0,0.,4.8,0.,4.8
1979-07-22 09:25:46.740 ,4,0,,0,0.,4.8,0.,4.8,,0,0.,4.8,0.,4.8
1979-07-22 09:25:51.540 ,4,0,,0,4.,4.8,0.,4.8,,0,0.,4.8,1.,4.8
1979-07-22 09:25:56.340 ,4,0,,0,3.,4.8,0.,4.8,,0,0.,4.8,0.,4.8
1979-07-22 09:26:01.140 ,4,0,,0,5.,4.8,0.,4.8,,0,0.,4.8,2.,4.8
1979-07-22 09:26:05.940 ,4,0,,0,7.,4.8,0.,4.8,,0,0.,4.8,0.,4.8
1979-07-22 09:26:10.740 ,4,0,,0,6.,4.8,0.,4.8,,0,0.,4.8,0.,4.8
1979-07-22 09:26:15.540 ,4,0,,0,0.,4.8,0.,4.8,,0,0.,4.8,0.,4.8
1979-07-22 09:26:20.340 ,4,0,,0,0.,4.8,0.,4.8,,0,0.,4.8,0.,4.8
1979-07-22 09:26:25.140 ,3,0,,0,0.,4.8,0.,4.8,,0,0.,4.8,0.,4.8
1979-07-22 09:26:29.940 ,3,0,,0,0.,4.8,0.,4.8,,0,0.,4.8,0.,4.8
1979-07-22 09:26:34.740 ,3,0,,0,2.,4.8,0.,4.8,,0,0.,4.8,0.,4.8
1979-07-22 09:26:39.540 ,3,0,,0,2.,4.8,0.,4.8,,0,0.,4.8,0.,4.8
1979-07-22 09:26:44.340 ,3,0,,0,4.,4.8,0.,4.8,,0,0.,4.8,0.,4.8
1979-07-22 09:26:49.140 ,3,0,,0,4.,4.8,0.,4.8,,0,0.,4.8,1.,4.8
1979-07-22 09:26:53.940 ,3,0,,0,0.,4.8,0.,4.8,,0,0.,4.8,0.,4.8
1979-07-22 09:26:58.740 ,3,0,,0,4.,4.8,1.,4.8,,0,0.,4.8,0.,4.8
1979-07-22 09:27:03.540 ,3,0,,0,0.,4.8,0.,4.8,,0,0.,4.8,0.,4.8
1979-07-22 09:27:08.340 ,3,0,,0,0.,4.8,0.,4.8,,0,1.,4.8,0.,4.8
1979-07-22 09:27:13.140 ,2,0,,0,0.,4.8,0.,4.8,,0,0.,4.8,0.,4.8
1979-07-22 09:27:17.940 ,2,0,,0,0.,4.8,0.,4.8,,0,0.,4.8,0.,4.8
1979-07-22 09:27:22.740 ,2,0,,0,1.,4.8,0.,4.8,,0,0.,4.8,0.,4.8
1979-07-22 09:27:27.540 ,2,0,,0,2.,4.8,0.,4.8,,0,0.,4.8,0.,4.8
1979-07-22 09:27:32.340 ,2,0,,0,6.,4.8,0.,4.8,,0,0.,4.8,0.,4.8
1979-07-22 09:27:37.140 ,0,0,,0,4.,4.8,0.,4.8,,0,0.,4.8,2.,4.8
1979-07-22 09:27:41.940 ,0,0,,0,7.,4.8,1.,4.8,,0,0.,4.8,0.,4.8
1979-07-22 09:27:46.740 ,0,0,,0,2.,4.8,0.,4.8,,0,0.,4.8,0.,4.8
1979-07-22 09:27:51.540 ,0,0,,0,0.,4.8,0.,4.8,,0,0.,4.8,1.,4.8
1979-07-22 09:27:56.340 ,0,0,,0,0.,4.8,0.,4.8,,0,0.,4.8,2.,4.8
1979-07-22 09:28:01.140 ,1,0,,0,0.,4.8,0.,4.8,,0,0.,4.8,2.,4.8
1979-07-22 09:28:05.940 ,1,0,,0,0.,4.8,0.,4.8,,0,0.,4.8,35.,4.8
1979-07-22 09:28:10.740 ,1,0,,0,168.,4.8,54.,4.8,,0,0.,4.8,94.,4.8
1979-07-22 09:28:15.540 ,1,0,,0,1056.,4.8,360.,4.8,,0,0.,4.8,136.,4.8
1979-07-22 09:28:20.340 ,1,0,,0,1024.,4.8,352.,4.8,,0,0.,4.8,152.,4.8
1979-07-22 09:28:25.140 ,1,0,,0,1008.,4.8,312.,4.8,,0,0.,4.8,124.,4.8
1979-07-22 09:28:29.940 ,1,0,,0,1008.,4.8,264.,4.8,,0,0.,4.8,136.,4.8
1979-07-22 09:28:34.740 ,1,0,,0,848.,4.8,184.,4.8,,0,0.,4.8,116.,4.8
1979-07-22 09:28:39.540 ,1,0,,0,0.,4.8,0.,4.8,,0,0.,4.8,112.,4.8
1979-07-22 09:28:44.340 ,1,0,,0,0.,4.8,0.,4.8,,0,1.,4.8,110.,4.8
1979-07-22 09:28:49.140 ,0,0,,0,0.,4.8,0.,4.8,,0,0.,4.8,160.,4.8
1979-07-22 09:28:53.940 ,0,0,,0,0.,4.8,0.,4.8,,0,0.,4.8,112.,4.8
1979-07-22 09:28:58.740 ,0,0,,0,296.,4.8,16.,4.8,,0,0.,4.8,50.,4.8
1979-07-22 09:29:03.540 ,0,0,,0,2016.,4.8,124.,4.8,,0,0.,4.8,44.,4.8
1979-07-22 09:29:08.340 ,0,0,,0,2176.,4.8,164.,4.8,,0,0.,4.8,57.,4.8
1979-07-22 09:29:13.140 ,0,0,,0,2112.,4.8,160.,4.8,,0,0.,4.8,41.,4.8
1979-07-22 09:29:17.940 ,0,0,,0,2176.,4.8,184.,4.8,,0,0.,4.8,50.,4.8
1979-07-22 09:29:22.740 ,0,0,,0,1856.,4.8,172.,4.8,,0,0.,4.8,51.,4.8
1979-07-22 09:29:27.540 ,0,0,,0,0.,4.8,0.,4.8,,0,0.,4.8,50.,4.8
1979-07-22 09:29:32.340 ,0,0,,0,0.,4.8,1.,4.8,,0,0.,4.8,61.,4.8
1979-07-22 09:29:37.140 ,0,0,,0,0.,4.8,0.,4.8,,0,0.,4.8,68.,4.8
1979-07-22 09:29:41.940 ,0,0,,0,0.,4.8,0.,4.8,,0,0.,4.8,50.,4.8